Back to catalog

STARLINK-37285

AliveCommunicationsSSO
NORAD 68626·PAYLOAD·🇺🇸 United States

Launched Apr 5, 2026 from Vandenberg Space Force Base

Loading…

Next Passes (next 24 hours)

TLE

FreshSource: CelesTrak SupGP

Epoch: Sep 14, 2026, 15:07 UTC

1 68626C 26073AA  26257.63034722 -.00067460  00000+0 -20948-2 0  2571
2 68626  97.2847  96.5708 0001771  87.0087  11.6669 15.33462611    10

Track STARLINK-37285 in real time with AllMySat

Download on the App Store